Year,Month,Day,Hour,Minute,Value (Times are PST for temperature in C)
2011,08,20,00,00,15.30
2011,08,20,00,01,15.30
2011,08,20,00,02,15.30
2011,08,20,00,03,15.30
2011,08,20,00,04,15.40
2011,08,20,00,05,15.40
2011,08,20,00,06,15.40
2011,08,20,00,07,15.40
2011,08,20,00,08,15.40
2011,08,20,00,09,15.40
2011,08,20,00,10,15.40
2011,08,20,00,11,15.40
2011,08,20,00,12,15.30
2011,08,20,00,13,15.30
2011,08,20,00,14,15.20
2011,08,20,00,15,15.20
2011,08,20,00,16,15.10
2011,08,20,00,17,15.10
2011,08,20,00,18,15.00
2011,08,20,00,19,15.00
2011,08,20,00,20,14.90
2011,08,20,00,21,14.90
2011,08,20,00,22,14.90
2011,08,20,00,23,14.90
2011,08,20,00,24,14.90
2011,08,20,00,25,14.90
2011,08,20,00,26,15.00
2011,08,20,00,27,15.00
2011,08,20,00,28,15.10
2011,08,20,00,29,15.10
2011,08,20,00,30,15.10
2011,08,20,00,31,15.10
2011,08,20,00,32,15.10
2011,08,20,00,33,15.10
2011,08,20,00,34,15.10
2011,08,20,00,35,15.10
2011,08,20,00,36,15.10
2011,08,20,00,37,15.10
2011,08,20,00,38,15.00
2011,08,20,00,39,14.90
2011,08,20,00,40,14.90
2011,08,20,00,41,14.80
2011,08,20,00,42,14.80
2011,08,20,00,43,14.70
2011,08,20,00,44,14.70
2011,08,20,00,45,14.70
2011,08,20,00,46,14.70
2011,08,20,00,47,14.80
2011,08,20,00,48,14.80
2011,08,20,00,49,14.80
2011,08,20,00,50,14.80
2011,08,20,00,51,14.80
2011,08,20,00,52,14.80
2011,08,20,00,53,14.70
2011,08,20,00,54,14.70
2011,08,20,00,55,14.60
2011,08,20,00,56,14.60
2011,08,20,00,57,14.60
2011,08,20,00,58,14.50
2011,08,20,00,59,14.50
2011,08,20,01,00,14.50
2011,08,20,01,01,14.50
2011,08,20,01,02,14.50
2011,08,20,01,03,14.50
2011,08,20,01,04,14.50
2011,08,20,01,05,14.50
2011,08,20,01,06,14.50
2011,08,20,01,07,14.50
2011,08,20,01,08,14.50
2011,08,20,01,09,14.50
2011,08,20,01,10,14.50
2011,08,20,01,11,14.50
2011,08,20,01,12,14.40
2011,08,20,01,13,14.40
2011,08,20,01,14,14.50
2011,08,20,01,15,14.50
2011,08,20,01,16,14.50
2011,08,20,01,17,14.60
2011,08,20,01,18,14.60
2011,08,20,01,19,14.60
2011,08,20,01,20,14.60
2011,08,20,01,21,14.60
2011,08,20,01,22,14.60
2011,08,20,01,23,14.60
2011,08,20,01,24,14.60
2011,08,20,01,25,14.60
2011,08,20,01,26,14.60
2011,08,20,01,27,14.60
2011,08,20,01,28,14.60
2011,08,20,01,29,14.60
2011,08,20,01,30,14.50
2011,08,20,01,31,14.50
2011,08,20,01,32,14.50
2011,08,20,01,33,14.40
2011,08,20,01,34,14.40
2011,08,20,01,35,14.40
2011,08,20,01,36,14.40
2011,08,20,01,37,14.40
2011,08,20,01,38,14.40
2011,08,20,01,39,14.30
2011,08,20,01,40,14.30
2011,08,20,01,41,14.30
2011,08,20,01,42,14.30
2011,08,20,01,43,14.30
2011,08,20,01,44,14.30
2011,08,20,01,45,14.30
2011,08,20,01,46,14.30
2011,08,20,01,47,14.30
2011,08,20,01,48,14.30
2011,08,20,01,49,14.40
2011,08,20,01,50,14.40
2011,08,20,01,51,14.40
2011,08,20,01,52,14.40
2011,08,20,01,53,14.40
2011,08,20,01,54,14.40
2011,08,20,01,55,14.40
2011,08,20,01,56,14.40
2011,08,20,01,57,14.40
2011,08,20,01,58,14.40
2011,08,20,01,59,14.40
2011,08,20,02,00,14.40
2011,08,20,02,01,14.40
2011,08,20,02,02,14.40
2011,08,20,02,03,14.40
2011,08,20,02,04,14.40
2011,08,20,02,05,14.40
2011,08,20,02,06,14.40
2011,08,20,02,07,14.40
2011,08,20,02,08,14.40
2011,08,20,02,09,14.40
2011,08,20,02,10,14.40
2011,08,20,02,11,14.40
2011,08,20,02,12,14.40
2011,08,20,02,13,14.40
2011,08,20,02,14,14.30
2011,08,20,02,15,14.30
2011,08,20,02,16,14.30
2011,08,20,02,17,14.30
2011,08,20,02,18,14.30
2011,08,20,02,19,14.30
2011,08,20,02,20,14.30
2011,08,20,02,21,14.40
2011,08,20,02,22,14.40
2011,08,20,02,23,14.50
2011,08,20,02,24,14.50
2011,08,20,02,25,14.50
2011,08,20,02,26,14.60
2011,08,20,02,27,14.60
2011,08,20,02,28,14.70
2011,08,20,02,29,14.70
2011,08,20,02,30,14.80
2011,08,20,02,31,14.80
2011,08,20,02,32,14.80
2011,08,20,02,33,14.80
2011,08,20,02,34,14.80
2011,08,20,02,35,14.80
2011,08,20,02,36,14.80
2011,08,20,02,37,14.80
2011,08,20,02,38,14.80
2011,08,20,02,39,14.80
2011,08,20,02,40,14.80
2011,08,20,02,41,14.90
2011,08,20,02,42,14.90
2011,08,20,02,43,15.00
2011,08,20,02,44,15.00
2011,08,20,02,45,15.00
2011,08,20,02,46,15.10
2011,08,20,02,47,15.10
2011,08,20,02,48,15.20
2011,08,20,02,49,15.20
2011,08,20,02,50,15.30
2011,08,20,02,51,15.30
2011,08,20,02,52,15.40
2011,08,20,02,53,15.40
2011,08,20,02,54,15.50
2011,08,20,02,55,15.50
2011,08,20,02,56,15.50
2011,08,20,02,57,15.50
2011,08,20,02,58,15.50
2011,08,20,02,59,15.50
2011,08,20,03,00,15.50
2011,08,20,03,01,15.60
2011,08,20,03,02,15.60
2011,08,20,03,03,15.70
2011,08,20,03,04,15.70
2011,08,20,03,05,15.80
2011,08,20,03,06,15.80
2011,08,20,03,07,15.80
2011,08,20,03,08,15.80
2011,08,20,03,09,15.80
2011,08,20,03,10,15.80
2011,08,20,03,11,15.80
2011,08,20,03,12,15.80
2011,08,20,03,13,15.80
2011,08,20,03,14,15.80
2011,08,20,03,15,15.80
2011,08,20,03,16,15.80
2011,08,20,03,17,15.80
2011,08,20,03,18,15.80
2011,08,20,03,19,15.80
2011,08,20,03,20,15.80
2011,08,20,03,21,15.80
2011,08,20,03,22,15.80
2011,08,20,03,23,15.90
2011,08,20,03,24,15.90
2011,08,20,03,25,15.80
2011,08,20,03,26,15.80
2011,08,20,03,27,15.80
2011,08,20,03,28,15.80
2011,08,20,03,29,15.80
2011,08,20,03,30,15.80
2011,08,20,03,31,15.70
2011,08,20,03,32,15.70
2011,08,20,03,33,15.70
2011,08,20,03,34,15.70
2011,08,20,03,35,15.70
2011,08,20,03,36,15.80
2011,08,20,03,37,15.80
2011,08,20,03,38,15.80
2011,08,20,03,39,15.80
2011,08,20,03,40,15.80
2011,08,20,03,41,15.80
2011,08,20,03,42,15.80
2011,08,20,03,43,15.80
2011,08,20,03,44,15.70
2011,08,20,03,45,15.70
2011,08,20,03,46,15.70
2011,08,20,03,47,15.70
2011,08,20,03,48,15.70
2011,08,20,03,49,15.70
2011,08,20,03,50,15.60
2011,08,20,03,51,15.60
2011,08,20,03,52,15.60
2011,08,20,03,53,15.50
2011,08,20,03,54,15.50
2011,08,20,03,55,15.40
2011,08,20,03,56,15.40
2011,08,20,03,57,15.40
2011,08,20,03,58,15.30
2011,08,20,03,59,15.30
2011,08,20,04,00,15.30
2011,08,20,04,01,15.30
2011,08,20,04,02,15.30
2011,08,20,04,03,15.30
2011,08,20,04,04,15.30
2011,08,20,04,05,15.40
2011,08,20,04,06,15.50
2011,08,20,04,07,15.50
2011,08,20,04,08,15.50
2011,08,20,04,09,15.60
2011,08,20,04,10,15.60
2011,08,20,04,11,15.60
2011,08,20,04,12,15.60
2011,08,20,04,13,15.60
2011,08,20,04,14,15.60
2011,08,20,04,15,15.60
2011,08,20,04,16,15.50
2011,08,20,04,17,15.50
2011,08,20,04,18,15.50
2011,08,20,04,19,15.50
2011,08,20,04,20,15.50
2011,08,20,04,21,15.50
2011,08,20,04,22,15.60
2011,08,20,04,23,15.60
2011,08,20,04,24,15.60
2011,08,20,04,25,15.60
2011,08,20,04,26,15.60
2011,08,20,04,27,15.60
2011,08,20,04,28,15.60
2011,08,20,04,29,15.60
2011,08,20,04,30,15.60
2011,08,20,04,31,15.60
2011,08,20,04,32,15.50
2011,08,20,04,33,15.50
2011,08,20,04,34,15.50
2011,08,20,04,35,15.50
2011,08,20,04,36,15.40
2011,08,20,04,37,15.40
2011,08,20,04,38,15.40
2011,08,20,04,39,15.40
2011,08,20,04,40,15.40
2011,08,20,04,41,15.40
2011,08,20,04,42,15.40
2011,08,20,04,43,15.40
2011,08,20,04,44,15.30
2011,08,20,04,45,15.30
2011,08,20,04,46,15.30
2011,08,20,04,47,15.30
2011,08,20,04,48,15.30
2011,08,20,04,49,15.30
2011,08,20,04,50,15.30
2011,08,20,04,51,15.30
2011,08,20,04,52,15.30
2011,08,20,04,53,15.30
2011,08,20,04,54,15.30
2011,08,20,04,55,15.30
2011,08,20,04,56,15.30
2011,08,20,04,57,15.30
2011,08,20,04,58,15.30
2011,08,20,04,59,15.30
2011,08,20,05,00,15.30
2011,08,20,05,01,15.30
2011,08,20,05,02,15.30
2011,08,20,05,03,15.30
2011,08,20,05,04,15.30
2011,08,20,05,05,15.30
2011,08,20,05,06,15.30
2011,08,20,05,07,15.20
2011,08,20,05,08,15.20
2011,08,20,05,09,15.10
2011,08,20,05,10,15.10
2011,08,20,05,11,15.10
2011,08,20,05,12,15.20
2011,08,20,05,13,15.20
2011,08,20,05,14,15.20
2011,08,20,05,15,15.20
2011,08,20,05,16,15.20
2011,08,20,05,17,15.20
2011,08,20,05,18,15.20
2011,08,20,05,19,15.20
2011,08,20,05,20,15.20
2011,08,20,05,21,15.20
2011,08,20,05,22,15.20
2011,08,20,05,23,15.30
2011,08,20,05,24,15.20
2011,08,20,05,25,15.20
2011,08,20,05,26,15.20
2011,08,20,05,27,15.20
2011,08,20,05,28,15.10
2011,08,20,05,29,15.10
2011,08,20,05,30,15.00
2011,08,20,05,31,15.00
2011,08,20,05,32,14.90
2011,08,20,05,33,14.90
2011,08,20,05,34,14.90
2011,08,20,05,35,14.80
2011,08,20,05,36,14.80
2011,08,20,05,37,14.80
2011,08,20,05,38,14.80
2011,08,20,05,39,14.80
2011,08,20,05,40,14.80
2011,08,20,05,41,14.80
2011,08,20,05,42,14.80
2011,08,20,05,43,14.80
2011,08,20,05,44,14.80
2011,08,20,05,45,14.80
2011,08,20,05,46,14.80
2011,08,20,05,47,14.70
2011,08,20,05,48,14.60
2011,08,20,05,49,14.60
2011,08,20,05,50,14.50
2011,08,20,05,51,14.50
2011,08,20,05,52,14.50
2011,08,20,05,53,14.50
2011,08,20,05,54,14.50
2011,08,20,05,55,14.50
2011,08,20,05,56,14.50
2011,08,20,05,57,14.50
2011,08,20,05,58,14.50
2011,08,20,05,59,14.50
2011,08,20,06,00,14.50
2011,08,20,06,01,14.60
2011,08,20,06,02,14.60
2011,08,20,06,03,14.60
2011,08,20,06,04,14.60
2011,08,20,06,05,14.60
2011,08,20,06,06,14.60
2011,08,20,06,07,14.60
2011,08,20,06,08,14.70
2011,08,20,06,09,14.60
2011,08,20,06,10,14.70
2011,08,20,06,11,14.70
2011,08,20,06,12,14.70
2011,08,20,06,13,14.70
2011,08,20,06,14,14.70
2011,08,20,06,15,14.70
2011,08,20,06,16,14.70
2011,08,20,06,17,14.70
2011,08,20,06,18,14.70
2011,08,20,06,19,14.70
2011,08,20,06,20,14.70
2011,08,20,06,21,14.70
2011,08,20,06,22,14.80
2011,08,20,06,23,14.80
2011,08,20,06,24,14.80
2011,08,20,06,25,14.80
2011,08,20,06,26,14.80
2011,08,20,06,27,14.80
2011,08,20,06,28,14.80
2011,08,20,06,29,14.80
2011,08,20,06,30,14.90
2011,08,20,06,31,14.90
2011,08,20,06,32,14.90
2011,08,20,06,33,15.00
2011,08,20,06,34,15.00
2011,08,20,06,35,15.10
2011,08,20,06,36,15.10
2011,08,20,06,37,15.20
2011,08,20,06,38,15.30
2011,08,20,06,39,15.30
2011,08,20,06,40,15.40
2011,08,20,06,41,15.50
2011,08,20,06,42,15.50
2011,08,20,06,43,15.60
2011,08,20,06,44,15.70
2011,08,20,06,45,15.80
2011,08,20,06,46,15.90
2011,08,20,06,47,16.00
2011,08,20,06,48,16.10
2011,08,20,06,49,16.20
2011,08,20,06,50,16.30
2011,08,20,06,51,16.40
2011,08,20,06,52,16.40
2011,08,20,06,53,16.40
2011,08,20,06,54,16.40
2011,08,20,06,55,16.40
2011,08,20,06,56,16.40
2011,08,20,06,57,16.40
2011,08,20,06,58,16.40
2011,08,20,06,59,16.40
2011,08,20,07,00,16.40
2011,08,20,07,01,16.40
2011,08,20,07,02,16.40
2011,08,20,07,03,16.30
2011,08,20,07,04,16.30
2011,08,20,07,05,16.30
2011,08,20,07,06,16.30
2011,08,20,07,07,16.30
2011,08,20,07,08,16.30
2011,08,20,07,09,16.40
2011,08,20,07,10,16.40
2011,08,20,07,11,16.40
2011,08,20,07,12,16.40
2011,08,20,07,13,16.50
2011,08,20,07,14,16.60
2011,08,20,07,15,16.60
2011,08,20,07,16,16.70
2011,08,20,07,17,16.70
2011,08,20,07,18,16.80
2011,08,20,07,19,16.80
2011,08,20,07,20,16.90
2011,08,20,07,21,17.00
2011,08,20,07,22,17.00
2011,08,20,07,23,17.10
2011,08,20,07,24,17.30
2011,08,20,07,25,17.30
2011,08,20,07,26,17.40
2011,08,20,07,27,17.50
2011,08,20,07,28,17.50
2011,08,20,07,29,17.50
2011,08,20,07,30,17.50
2011,08,20,07,31,17.50
2011,08,20,07,32,17.50
2011,08,20,07,33,17.50
2011,08,20,07,34,17.50
2011,08,20,07,35,17.60
2011,08,20,07,36,17.70
2011,08,20,07,37,17.70
2011,08,20,07,38,17.70
2011,08,20,07,39,17.80
2011,08,20,07,40,17.80
2011,08,20,07,41,17.80
2011,08,20,07,42,17.90
2011,08,20,07,43,17.90
2011,08,20,07,44,17.90
2011,08,20,07,45,17.90
2011,08,20,07,46,18.10
2011,08,20,07,47,18.10
2011,08,20,07,48,18.20
2011,08,20,07,49,18.30
2011,08,20,07,50,18.40
2011,08,20,07,51,18.50
2011,08,20,07,52,18.50
2011,08,20,07,53,18.60
2011,08,20,07,54,18.70
2011,08,20,07,55,18.70
2011,08,20,07,56,18.70
2011,08,20,07,57,18.70
2011,08,20,07,58,18.70
2011,08,20,07,59,18.80
2011,08,20,08,00,18.90
2011,08,20,08,01,18.90
2011,08,20,08,02,18.90
2011,08,20,08,03,18.90
2011,08,20,08,04,18.90
2011,08,20,08,05,18.80
2011,08,20,08,06,18.70
2011,08,20,08,07,18.60
2011,08,20,08,08,18.50
2011,08,20,08,09,18.40
2011,08,20,08,10,18.40
2011,08,20,08,11,18.30
2011,08,20,08,12,18.30
2011,08,20,08,13,18.30
2011,08,20,08,14,18.20
2011,08,20,08,15,18.30
2011,08,20,08,16,18.30
2011,08,20,08,17,18.40
2011,08,20,08,18,18.50
2011,08,20,08,19,18.50
2011,08,20,08,20,18.60
2011,08,20,08,21,18.70
2011,08,20,08,22,18.80
2011,08,20,08,23,18.90
2011,08,20,08,24,18.90
2011,08,20,08,25,18.90
2011,08,20,08,26,19.00
2011,08,20,08,27,19.10
2011,08,20,08,28,19.10
2011,08,20,08,29,19.10
2011,08,20,08,30,19.10
2011,08,20,08,31,19.20
2011,08,20,08,32,19.10
2011,08,20,08,33,19.10
2011,08,20,08,34,19.10
2011,08,20,08,35,19.10
2011,08,20,08,36,19.10
2011,08,20,08,37,19.10
2011,08,20,08,38,19.10
2011,08,20,08,39,19.20
2011,08,20,08,40,19.40
2011,08,20,08,41,19.40
2011,08,20,08,42,19.60
2011,08,20,08,43,19.60
2011,08,20,08,44,19.70
2011,08,20,08,45,19.80
2011,08,20,08,46,19.90
2011,08,20,08,47,19.90
2011,08,20,08,48,19.90
2011,08,20,08,49,19.80
2011,08,20,08,50,19.70
2011,08,20,08,51,19.70
2011,08,20,08,52,19.70
2011,08,20,08,53,19.70
2011,08,20,08,54,19.70
2011,08,20,08,55,19.80
2011,08,20,08,56,19.80
2011,08,20,08,57,19.90
2011,08,20,08,58,20.00
2011,08,20,08,59,20.10
2011,08,20,09,00,20.20
2011,08,20,09,01,20.20
2011,08,20,09,02,20.40
2011,08,20,09,03,20.50
2011,08,20,09,04,20.60
2011,08,20,09,05,20.60
2011,08,20,09,06,20.60
2011,08,20,09,07,20.60
2011,08,20,09,08,20.70
2011,08,20,09,09,20.80
2011,08,20,09,10,20.70
2011,08,20,09,11,20.70
2011,08,20,09,12,20.60
2011,08,20,09,13,20.60
2011,08,20,09,14,20.60
2011,08,20,09,15,20.50
2011,08,20,09,16,20.40
2011,08,20,09,17,20.30
2011,08,20,09,18,20.30
2011,08,20,09,19,20.30
2011,08,20,09,20,20.30
2011,08,20,09,21,20.20
2011,08,20,09,22,20.10
2011,08,20,09,23,20.00
2011,08,20,09,24,19.90
2011,08,20,09,25,19.90
2011,08,20,09,26,19.70
2011,08,20,09,27,19.60
2011,08,20,09,28,19.50
2011,08,20,09,29,19.40
2011,08,20,09,30,19.40
2011,08,20,09,31,19.30
2011,08,20,09,32,19.10
2011,08,20,09,33,19.10
2011,08,20,09,34,19.10
2011,08,20,09,35,19.20
2011,08,20,09,36,19.20
2011,08,20,09,37,19.20
2011,08,20,09,38,19.20
2011,08,20,09,39,19.30
2011,08,20,09,40,19.30
2011,08,20,09,41,19.30
2011,08,20,09,42,19.30
2011,08,20,09,43,19.20
2011,08,20,09,44,19.20
2011,08,20,09,45,19.10
2011,08,20,09,46,19.10
2011,08,20,09,47,19.10
2011,08,20,09,48,19.10
2011,08,20,09,49,19.20
2011,08,20,09,50,19.10
2011,08,20,09,51,19.10
2011,08,20,09,52,18.90
2011,08,20,09,53,18.90
2011,08,20,09,54,18.90
2011,08,20,09,55,18.90
2011,08,20,09,56,18.90
2011,08,20,09,57,18.90
2011,08,20,09,58,18.90
2011,08,20,09,59,18.90
2011,08,20,10,00,18.90
2011,08,20,10,01,19.00
2011,08,20,10,02,19.10
2011,08,20,10,03,19.20
2011,08,20,10,04,19.40
2011,08,20,10,05,19.50
2011,08,20,10,06,19.50
2011,08,20,10,07,19.50
2011,08,20,10,08,19.50
2011,08,20,10,09,19.50
2011,08,20,10,10,19.50
2011,08,20,10,11,19.50
2011,08,20,10,12,19.40
2011,08,20,10,13,19.30
2011,08,20,10,14,19.30
2011,08,20,10,15,19.30
2011,08,20,10,16,19.30
2011,08,20,10,17,19.40
2011,08,20,10,18,19.40
2011,08,20,10,19,19.40
2011,08,20,10,20,19.30
2011,08,20,10,21,19.30
2011,08,20,10,22,19.20
2011,08,20,10,23,19.20
2011,08,20,10,24,19.10
2011,08,20,10,25,19.10
2011,08,20,10,26,19.10
2011,08,20,10,27,19.10
2011,08,20,10,28,19.20
2011,08,20,10,29,19.20
2011,08,20,10,30,19.20
2011,08,20,10,31,19.30
2011,08,20,10,32,19.30
2011,08,20,10,33,19.30
2011,08,20,10,34,19.30
2011,08,20,10,35,19.30
2011,08,20,10,36,19.40
2011,08,20,10,37,19.40
2011,08,20,10,38,19.50
2011,08,20,10,39,19.50
2011,08,20,10,40,19.50
2011,08,20,10,41,19.60
2011,08,20,10,42,19.60
2011,08,20,10,43,19.60
2011,08,20,10,44,19.70
2011,08,20,10,45,19.60
2011,08,20,10,46,19.60
2011,08,20,10,47,19.60
2011,08,20,10,48,19.50
2011,08,20,10,49,19.40
2011,08,20,10,50,19.30
2011,08,20,10,51,19.30
2011,08,20,10,52,19.30
2011,08,20,10,53,19.40
2011,08,20,10,54,19.50
2011,08,20,10,55,19.60
2011,08,20,10,56,19.70
2011,08,20,10,57,19.90
2011,08,20,10,58,20.00
2011,08,20,10,59,20.10
2011,08,20,11,00,20.10
2011,08,20,11,01,20.10
2011,08,20,11,02,20.20
2011,08,20,11,03,20.20
2011,08,20,11,04,20.20
2011,08,20,11,05,20.30
2011,08,20,11,06,20.30
2011,08,20,11,07,20.30
2011,08,20,11,08,20.40
2011,08,20,11,09,20.50
2011,08,20,11,10,20.60
2011,08,20,11,11,20.70
2011,08,20,11,12,20.90
2011,08,20,11,13,21.00
2011,08,20,11,14,21.00
2011,08,20,11,15,21.00
2011,08,20,11,16,21.00
2011,08,20,11,17,21.00
2011,08,20,11,18,20.90
2011,08,20,11,19,20.80
2011,08,20,11,20,20.60
2011,08,20,11,21,20.40
2011,08,20,11,22,20.30
2011,08,20,11,23,20.30
2011,08,20,11,24,20.30
2011,08,20,11,25,20.40
2011,08,20,11,26,20.50
2011,08,20,11,27,20.50
2011,08,20,11,28,20.50
2011,08,20,11,29,20.50
2011,08,20,11,30,20.50
2011,08,20,11,31,20.50
2011,08,20,11,32,20.40
2011,08,20,11,33,20.40
2011,08,20,11,34,20.30
2011,08,20,11,35,20.30
2011,08,20,11,36,20.30
2011,08,20,11,37,20.40
2011,08,20,11,38,20.50
2011,08,20,11,39,20.50
2011,08,20,11,40,20.60
2011,08,20,11,41,20.50
2011,08,20,11,42,20.50
2011,08,20,11,43,20.60
2011,08,20,11,44,20.70
2011,08,20,11,45,20.90
2011,08,20,11,46,21.00
2011,08,20,11,47,21.10
2011,08,20,11,48,21.20
2011,08,20,11,49,21.10
2011,08,20,11,50,21.10
2011,08,20,11,51,21.00
2011,08,20,11,52,20.80
2011,08,20,11,53,20.80
2011,08,20,11,54,20.80
2011,08,20,11,55,20.70
2011,08,20,11,56,20.70
2011,08,20,11,57,20.70
2011,08,20,11,58,20.50
2011,08,20,11,59,20.50
2011,08,20,12,00,20.60
2011,08,20,12,01,20.60
2011,08,20,12,02,20.60
2011,08,20,12,03,20.60
2011,08,20,12,04,20.70
2011,08,20,12,05,20.70
2011,08,20,12,06,20.80
2011,08,20,12,07,20.80
2011,08,20,12,08,20.70
2011,08,20,12,09,20.80
2011,08,20,12,10,20.80
2011,08,20,12,11,20.90
2011,08,20,12,12,20.90
2011,08,20,12,13,20.90
2011,08,20,12,14,20.90
2011,08,20,12,15,21.00
2011,08,20,12,16,21.10
2011,08,20,12,17,21.10
2011,08,20,12,18,21.00
2011,08,20,12,19,20.90
2011,08,20,12,20,20.80
2011,08,20,12,21,20.80
2011,08,20,12,22,20.70
2011,08,20,12,23,20.80
2011,08,20,12,24,20.90
2011,08,20,12,25,20.90
2011,08,20,12,26,21.00
2011,08,20,12,27,21.00
2011,08,20,12,28,20.90
2011,08,20,12,29,20.90
2011,08,20,12,30,20.90
2011,08,20,12,31,20.80
2011,08,20,12,32,20.70
2011,08,20,12,33,20.70
2011,08,20,12,34,20.60
2011,08,20,12,35,20.60
2011,08,20,12,36,20.60
2011,08,20,12,37,20.70
2011,08,20,12,38,20.70
2011,08,20,12,39,20.90
2011,08,20,12,40,21.10
2011,08,20,12,41,21.20
2011,08,20,12,42,21.30
2011,08,20,12,43,21.40
2011,08,20,12,44,21.60
2011,08,20,12,45,21.70
2011,08,20,12,46,21.80
2011,08,20,12,47,21.80
2011,08,20,12,48,21.90
2011,08,20,12,49,22.00
2011,08,20,12,50,22.00
2011,08,20,12,51,22.20
2011,08,20,12,52,22.20
2011,08,20,12,53,22.30
2011,08,20,12,54,22.40
2011,08,20,12,55,22.40
2011,08,20,12,56,22.50
2011,08,20,12,57,22.50
2011,08,20,12,58,22.60
2011,08,20,12,59,22.60
2011,08,20,13,00,22.60
2011,08,20,13,01,22.60
2011,08,20,13,02,22.50
2011,08,20,13,03,22.50
2011,08,20,13,04,22.50
2011,08,20,13,05,22.60
2011,08,20,13,06,22.60
2011,08,20,13,07,22.70
2011,08,20,13,08,22.90
2011,08,20,13,09,22.90
2011,08,20,13,10,23.00
2011,08,20,13,11,23.10
2011,08,20,13,12,23.10
2011,08,20,13,13,23.20
2011,08,20,13,14,23.30
2011,08,20,13,15,23.30
2011,08,20,13,16,23.20
2011,08,20,13,17,22.80
2011,08,20,13,18,22.50
2011,08,20,13,19,22.20
2011,08,20,13,20,21.90
2011,08,20,13,21,21.60
2011,08,20,13,22,21.50
2011,08,20,13,23,21.40
2011,08,20,13,24,21.30
2011,08,20,13,25,21.30
2011,08,20,13,26,21.30
2011,08,20,13,27,21.30
2011,08,20,13,28,21.30
2011,08,20,13,29,21.30
2011,08,20,13,30,21.40
2011,08,20,13,31,21.60
2011,08,20,13,32,21.60
2011,08,20,13,33,21.60
2011,08,20,13,34,21.60
2011,08,20,13,35,21.60
2011,08,20,13,36,21.60
2011,08,20,13,37,21.70
2011,08,20,13,38,21.70
2011,08,20,13,39,21.70
2011,08,20,13,40,21.70
2011,08,20,13,41,21.70
2011,08,20,13,42,21.60
2011,08,20,13,43,21.70
2011,08,20,13,44,21.80
2011,08,20,13,45,21.90
2011,08,20,13,46,22.10
2011,08,20,13,47,22.10
2011,08,20,13,48,22.10
2011,08,20,13,49,22.10
2011,08,20,13,50,22.10
2011,08,20,13,51,22.10
2011,08,20,13,52,22.20
2011,08,20,13,53,22.30
2011,08,20,13,54,22.30
2011,08,20,13,55,22.30
2011,08,20,13,56,22.30
2011,08,20,13,57,22.40
2011,08,20,13,58,22.40
2011,08,20,13,59,22.40
2011,08,20,14,00,22.30
2011,08,20,14,01,22.30
2011,08,20,14,02,22.40
2011,08,20,14,03,22.50
2011,08,20,14,04,22.60
2011,08,20,14,05,22.60
2011,08,20,14,06,22.50
2011,08,20,14,07,22.50
2011,08,20,14,08,22.50
2011,08,20,14,09,22.60
2011,08,20,14,10,22.60
2011,08,20,14,11,22.70
2011,08,20,14,12,22.60
2011,08,20,14,13,22.50
2011,08,20,14,14,22.50
2011,08,20,14,15,22.60
2011,08,20,14,16,22.60
2011,08,20,14,17,22.60
2011,08,20,14,18,22.60
2011,08,20,14,19,22.60
2011,08,20,14,20,22.60
2011,08,20,14,21,22.70
2011,08,20,14,22,22.70
2011,08,20,14,23,22.80
2011,08,20,14,24,22.80
2011,08,20,14,25,22.90
2011,08,20,14,26,22.90
2011,08,20,14,27,22.90
2011,08,20,14,28,23.10
2011,08,20,14,29,23.10
2011,08,20,14,30,23.10
2011,08,20,14,31,22.90
2011,08,20,14,32,22.90
2011,08,20,14,33,23.00
2011,08,20,14,34,23.10
2011,08,20,14,35,23.10
2011,08,20,14,36,23.10
2011,08,20,14,37,23.00
2011,08,20,14,38,22.90
2011,08,20,14,39,22.90
2011,08,20,14,40,22.90
2011,08,20,14,41,22.90
2011,08,20,14,42,22.90
2011,08,20,14,43,22.90
2011,08,20,14,44,23.10
2011,08,20,14,45,23.10
2011,08,20,14,46,23.20
2011,08,20,14,47,23.10
2011,08,20,14,48,23.10
2011,08,20,14,49,23.20
2011,08,20,14,50,23.10
2011,08,20,14,51,23.20
2011,08,20,14,52,23.20
2011,08,20,14,53,23.20
2011,08,20,14,54,23.30
2011,08,20,14,55,23.40
2011,08,20,14,56,23.40
2011,08,20,14,57,23.40
2011,08,20,14,58,23.60
2011,08,20,14,59,23.60
2011,08,20,15,00,23.60
2011,08,20,15,01,23.60
2011,08,20,15,02,23.70
2011,08,20,15,03,23.70
2011,08,20,15,04,23.70
2011,08,20,15,05,23.70
2011,08,20,15,06,23.80
2011,08,20,15,07,23.80
2011,08,20,15,08,23.90
2011,08,20,15,09,23.90
2011,08,20,15,10,23.90
2011,08,20,15,11,23.80
2011,08,20,15,12,23.80
2011,08,20,15,13,23.70
2011,08,20,15,14,23.70
2011,08,20,15,15,23.90
2011,08,20,15,16,24.00
2011,08,20,15,17,24.10
2011,08,20,15,18,24.20
2011,08,20,15,19,24.30
2011,08,20,15,20,24.40
2011,08,20,15,21,24.40
2011,08,20,15,22,24.50
2011,08,20,15,23,24.50
2011,08,20,15,24,24.60
2011,08,20,15,25,24.60
2011,08,20,15,26,24.60
2011,08,20,15,27,24.70
2011,08,20,15,28,24.70
2011,08,20,15,29,24.70
2011,08,20,15,30,24.70
2011,08,20,15,31,24.70
2011,08,20,15,32,24.70
2011,08,20,15,33,24.70
2011,08,20,15,34,24.80
2011,08,20,15,35,24.90
2011,08,20,15,36,24.90
2011,08,20,15,37,24.90
2011,08,20,15,38,24.90
2011,08,20,15,39,24.90
2011,08,20,15,40,24.90
2011,08,20,15,41,24.90
2011,08,20,15,42,24.90
2011,08,20,15,43,25.00
2011,08,20,15,44,25.00
2011,08,20,15,45,25.00
2011,08,20,15,46,25.00
2011,08,20,15,47,25.10
2011,08,20,15,48,25.00
2011,08,20,15,49,24.90
2011,08,20,15,50,24.80
2011,08,20,15,51,24.80
2011,08,20,15,52,24.80
2011,08,20,15,53,24.60
2011,08,20,15,54,24.50
2011,08,20,15,55,24.50
2011,08,20,15,56,24.40
2011,08,20,15,57,24.30
2011,08,20,15,58,24.30
2011,08,20,15,59,24.30
2011,08,20,16,00,24.30
2011,08,20,16,01,24.40
2011,08,20,16,02,24.50
2011,08,20,16,03,24.50
2011,08,20,16,04,24.40
2011,08,20,16,05,24.40
2011,08,20,16,06,24.40
2011,08,20,16,07,24.40
2011,08,20,16,08,24.50
2011,08,20,16,09,24.50
2011,08,20,16,10,24.60
2011,08,20,16,11,24.50
2011,08,20,16,12,24.60
2011,08,20,16,13,24.50
2011,08,20,16,14,24.40
2011,08,20,16,15,24.30
2011,08,20,16,16,24.10
2011,08,20,16,17,24.00
2011,08,20,16,18,23.90
2011,08,20,16,19,23.90
2011,08,20,16,20,23.90
2011,08,20,16,21,23.80
2011,08,20,16,22,23.80
2011,08,20,16,23,23.70
2011,08,20,16,24,23.80
2011,08,20,16,25,23.80
2011,08,20,16,26,23.80
2011,08,20,16,27,23.80
2011,08,20,16,28,23.90
2011,08,20,16,29,23.90
2011,08,20,16,30,23.90
2011,08,20,16,31,24.10
2011,08,20,16,32,24.00
2011,08,20,16,33,23.90
2011,08,20,16,34,23.80
2011,08,20,16,35,23.80
2011,08,20,16,36,23.80
2011,08,20,16,37,23.80
2011,08,20,16,38,23.70
2011,08,20,16,39,23.80
2011,08,20,16,40,23.80
2011,08,20,16,41,23.90
2011,08,20,16,42,23.90
2011,08,20,16,43,24.00
2011,08,20,16,44,24.10
2011,08,20,16,45,24.10
2011,08,20,16,46,24.20
2011,08,20,16,47,24.30
2011,08,20,16,48,24.40
2011,08,20,16,49,24.50
2011,08,20,16,50,24.50
2011,08,20,16,51,24.60
2011,08,20,16,52,24.60
2011,08,20,16,53,24.70
2011,08,20,16,54,24.70
2011,08,20,16,55,24.70
2011,08,20,16,56,24.70
2011,08,20,16,57,24.70
2011,08,20,16,58,24.80
2011,08,20,16,59,24.80
2011,08,20,17,00,24.70
2011,08,20,17,01,24.60
2011,08,20,17,02,24.60
2011,08,20,17,03,24.60
2011,08,20,17,04,24.60
2011,08,20,17,05,24.50
2011,08,20,17,06,24.50
2011,08,20,17,07,24.60
2011,08,20,17,08,24.60
2011,08,20,17,09,24.60
2011,08,20,17,10,24.60
2011,08,20,17,11,24.60
2011,08,20,17,12,24.60
2011,08,20,17,13,24.70
2011,08,20,17,14,24.70
2011,08,20,17,15,24.70
2011,08,20,17,16,24.70
2011,08,20,17,17,24.70
2011,08,20,17,18,24.80
2011,08,20,17,19,24.80